Terminal Aerodrome Forecast
Issued by NWS Blacksburg, VA

Current Version | Previous Version | Text Only | Print | Product List | Glossary Off
Versions: 1 2 3 4 5 6 7 8 9 10 11 12 13 14 15 16 17 18 19 20 21 22 23 24 25 26 27 28 29 30 31 32 33 34 35 36 37 38 39 40 41 42 43 44 45 46 47 48 49 50

217
FTUS41 KRNK 242051 AAD
TAFBLF
TAF AMD
KBLF 242051Z 2421/2518 20006KT 3SM -SHRA OVC025
      TEMPO 2421/2423 4SM TSRA OVC015CB
     FM250300 21008KT 2SM SHRA OVC015
     FM250600 26006KT P6SM BKN035
     FM251500 24010KT P6SM VCSH BKN045=

USA.gov is the U.S. government's official web portal to all federal, state and local government web resources and services.